TimeCEST,TemperatureF,Dew PointF,Humidity,Sea Level PressureIn,VisibilityMPH,Wind Direction,Wind SpeedMPH,Gust SpeedMPH,PrecipitationIn,Events,Conditions,WindDirDegrees,DateUTC
12:00 AM,53.6,50.0,88,30.12,6.2,ENE,1.2,-,N/A,,Unknown,60,2012-10-02 22:00:00
12:30 AM,53.6,51.8,94,30.09,6.2,Calm,Calm,-,N/A,,Unknown,0,2012-10-02 22:30:00
1:00 AM,53.6,51.8,94,30.09,6.2,NNE,2.3,-,N/A,,Unknown,20,2012-10-02 23:00:00
1:30 AM,53.6,50.0,88,30.09,6.2,Calm,Calm,-,N/A,,Unknown,0,2012-10-02 23:30:00
2:00 AM,53.6,50.0,88,30.09,6.2,Calm,Calm,-,N/A,,Unknown,0,2012-10-03 00:00:00
2:30 AM,51.8,50.0,94,30.09,6.2,Calm,Calm,-,N/A,,Unknown,0,2012-10-03 00:30:00
3:00 AM,53.6,50.0,88,30.09,6.2,Calm,Calm,-,N/A,,Unknown,0,2012-10-03 01:00:00
3:30 AM,51.8,50.0,94,30.09,6.2,NE,3.5,-,N/A,,Unknown,50,2012-10-03 01:30:00
4:00 AM,51.8,50.0,94,30.09,6.2,East,3.5,-,N/A,,Unknown,80,2012-10-03 02:00:00
4:30 AM,51.8,50.0,94,30.09,6.2,NE,3.5,-,N/A,,Unknown,40,2012-10-03 02:30:00
5:00 AM,51.8,50.0,94,30.09,6.2,NNE,3.5,-,N/A,,Unknown,20,2012-10-03 03:00:00
5:30 AM,51.8,50.0,94,30.09,6.2,Calm,Calm,-,N/A,,Unknown,0,2012-10-03 03:30:00
6:00 AM,51.8,50.0,94,30.09,6.2,SW,3.5,-,N/A,,Unknown,220,2012-10-03 04:00:00
6:30 AM,48.2,46.4,93,30.09,5.6,Calm,Calm,-,N/A,,Unknown,0,2012-10-03 04:30:00
7:00 AM,48.2,46.4,93,30.09,4.3,Calm,Calm,-,N/A,,Unknown,0,2012-10-03 05:00:00
7:30 AM,50.0,48.2,94,30.09,6.2,North,1.2,-,N/A,,Unknown,360,2012-10-03 05:30:00
8:00 AM,50.0,48.2,94,30.09,6.2,NNW,2.3,-,N/A,,Unknown,340,2012-10-03 06:00:00
8:30 AM,51.8,48.2,88,30.09,6.2,ESE,2.3,-,N/A,,Unknown,110,2012-10-03 06:30:00
9:00 AM,55.4,51.8,88,30.12,6.2,Calm,Calm,-,N/A,,Unknown,0,2012-10-03 07:00:00
9:30 AM,57.2,51.8,82,30.12,6.2,Variable,3.5,-,N/A,,Unknown,0,2012-10-03 07:30:00
10:00 AM,60.8,53.6,77,30.12,6.2,NNE,3.5,-,N/A,,Unknown,30,2012-10-03 08:00:00
10:30 AM,64.4,53.6,68,30.12,6.2,Variable,1.2,-,N/A,,Unknown,0,2012-10-03 08:30:00
11:00 AM,69.8,51.8,53,30.12,6.2,Calm,Calm,-,N/A,,Unknown,0,2012-10-03 09:00:00
11:30 AM,69.8,50.0,49,30.12,6.2,Variable,2.3,-,N/A,,Unknown,0,2012-10-03 09:30:00
12:00 PM,71.6,51.8,50,30.12,6.2,Variable,2.3,-,N/A,,Unknown,0,2012-10-03 10:00:00
12:30 PM,73.4,51.8,47,30.09,6.2,NW,4.6,-,N/A,,Unknown,320,2012-10-03 10:30:00
1:00 PM,73.4,53.6,50,30.09,6.2,NW,4.6,-,N/A,,Unknown,310,2012-10-03 11:00:00
1:30 PM,75.2,53.6,47,30.09,6.2,WNW,4.6,-,N/A,,Unknown,300,2012-10-03 11:30:00
2:00 PM,77.0,53.6,44,30.09,6.2,WNW,5.8,-,N/A,,Unknown,290,2012-10-03 12:00:00
2:30 PM,77.0,53.6,44,30.06,6.2,West,5.8,-,N/A,,Unknown,280,2012-10-03 12:30:00
3:00 PM,77.0,51.8,41,30.06,6.2,NW,5.8,-,N/A,,Unknown,310,2012-10-03 13:00:00
3:30 PM,78.8,51.8,39,30.06,6.2,WNW,4.6,-,N/A,,Unknown,290,2012-10-03 13:30:00
4:00 PM,78.8,50.0,36,30.06,6.2,West,6.9,-,N/A,,Unknown,260,2012-10-03 14:00:00
4:30 PM,78.8,50.0,36,30.06,6.2,Variable,6.9,-,N/A,,Unknown,0,2012-10-03 14:30:00
5:00 PM,77.0,51.8,41,30.06,6.2,West,4.6,-,N/A,,Unknown,260,2012-10-03 15:00:00
5:30 PM,77.0,51.8,41,30.06,6.2,WSW,5.8,-,N/A,,Unknown,240,2012-10-03 15:30:00
6:00 PM,75.2,53.6,47,30.06,6.2,SW,6.9,-,N/A,,Unknown,230,2012-10-03 16:00:00
6:30 PM,73.4,53.6,50,30.06,6.2,WSW,6.9,-,N/A,,Unknown,240,2012-10-03 16:30:00
7:00 PM,71.6,53.6,53,30.06,6.2,SW,3.5,-,N/A,,Unknown,220,2012-10-03 17:00:00
7:30 PM,68.0,53.6,60,30.06,6.2,Calm,Calm,-,N/A,,Unknown,0,2012-10-03 17:30:00
8:00 PM,64.4,53.6,68,30.06,6.2,Calm,Calm,-,N/A,,Unknown,0,2012-10-03 18:00:00
8:30 PM,64.4,55.4,73,30.06,6.2,SSW,2.3,-,N/A,,Unknown,210,2012-10-03 18:30:00
9:00 PM,62.6,53.6,72,30.09,6.2,Calm,Calm,-,N/A,,Unknown,0,2012-10-03 19:00:00
9:30 PM,59.0,53.6,82,30.09,6.2,Calm,Calm,-,N/A,,Unknown,0,2012-10-03 19:30:00
10:00 PM,57.2,53.6,88,30.09,6.2,Calm,Calm,-,N/A,,Unknown,0,2012-10-03 20:00:00
10:30 PM,57.2,51.8,82,30.09,6.2,Calm,Calm,-,N/A,,Unknown,0,2012-10-03 20:30:00
11:00 PM,55.4,50.0,82,30.09,6.2,ENE,2.3,-,N/A,,Unknown,70,2012-10-03 21:00:00
11:30 PM,53.6,50.0,88,30.09,6.2,NE,3.5,-,N/A,,Unknown,50,2012-10-03 21:30:00